Location: Kerguer�zec
(48.4509°N, 4.7600°W)
Time: 06:12:17
(UTC+00:00)

Cosmos 2074 Rocket - Pass Details

Date: 09 April 2020
Orbit: 967 x 986 km, 82.9° (Epoch: 29 May)

Event Time Altitude Azimuth Distance (km) Brightness Sun altitude
Rises 19:40:58 0° 349° (N) 3,700 7.5 -7.0°
Reaches altitude 10° 19:43:29 10° 349° (N) 2,750 6.8 -7.4°
Maximum altitude 19:49:48 79° 264° (W) 1,008 4.2 -8.4°
Drops below altitude 10° 19:56:05 10° 179° (S) 2,736 6.1 -9.3°
Sets 19:58:35 0° 178° (S) 3,681 6.8 -9.7°
